VINASAT-1

Last updated on Fri Nov 07 2025 00:02:48 GMT+0000 (Coordinated Universal Time)

1 32767U 08018A 25310.23670872 -.00000318 00000+0 00000+0 0 9999 2 32767 0.0143 335.9412 0002268 269.1370 17.8091 1.00272496 64353
UTC large
Height (km)
Speed (km/s)
/
Latitude / Longitude
Inclination (degrees)
Orbital Period (minutes)
Azimuth
Elevation
Range (km)
Doppler Factor

Next 0 passes for location: London (51.5072 / 0.1276)

Sorry there are no passes over London.